Weather History for Fort Stockton, TX

Change the Weather History Date:

Tuesday, June 25, 2013

  Actual Average Record
Temperature  
Mean Temperature 88 °F -  
Max Temperature 105 °F 93 °F 111 °F (2011)
Min Temperature 73 °F 68 °F 63 °F (2004)
Cooling Degree Days 22    
Growing Degree Days 38 (Base 50)    
Moisture  
Dew Point 59 °F    
Average Humidity 42    
Maximum Humidity 66    
Minimum Humidity 15    
Precipitation  
Precipitation 0.00 in - - ()
Sea Level Pressure  
Sea Level Pressure 29.78 in    
Wind  
Wind Speed 15 mph (SSE)    
Max Wind Speed 24 mph    
Max Gust Speed 31 mph    
Visibility 10 miles    
Events Rain    
Averages and records for this station are not official NWS values.
T = Trace of Precipitation, MM = Missing Value Source: NWS Daily Summary

Daily Weather History Graph

Daily Weather History Graph

Search for Another Location

Airport:

Trip Planner

Search our weather history database for the weather conditions in past years. The results will help you decide how hot, cold, wet, or windy it might be!

Date:

Astronomy

Jun. 25, 2013 Rise Set
Actual Time 6:49 AM CDT 8:58 PM CDT
Civil Twilight 6:22 AM CDT 9:26 PM CDT
Nautical Twilight 5:48 AM CDT 10:00 PM CDT
Astronomical Twilight 5:11 AM CDT 10:36 PM CDT
Moon 10:59 PM CDT (6/25) 9:21 AM CDT (6/25)
Length of Visible Light 15h 04m
Length of Day
14h 08m
Waning Gibbous, 92% of the Moon is Illuminated
Jun 25
Waning Gibbous
Jun 29
Last Quarter
Jul 8
New
Jul 15
First Quarter
Jul 22
Full

Hourly Weather History & Observations

Time (CDT) Temp. Heat Index Dew Point Humidity Pressure Visibility Wind Dir Wind Speed Gust Speed Precip Events Conditions
12:53 AM 79.0 °F - 61.0 °F 54% 29.78 in 10.0 mi SSE 19.6 mph 29.9 mph N/A   Clear
1:53 AM 79.0 °F - 61.0 °F 54% 29.76 in 10.0 mi SSE 19.6 mph 27.6 mph N/A   Clear
2:53 AM 78.1 °F - 61.0 °F 56% 29.76 in 10.0 mi SSE 16.1 mph 26.5 mph N/A   Clear
3:53 AM 78.1 °F - 59.0 °F 52% 29.77 in 10.0 mi SSE 16.1 mph 27.6 mph N/A   Clear
4:53 AM 75.9 °F - 57.9 °F 54% 29.81 in 10.0 mi South 8.1 mph - N/A   Clear
5:53 AM 75.0 °F - 59.0 °F 57% 29.81 in 10.0 mi SSE 11.5 mph - N/A   Clear
6:53 AM 73.9 °F - 61.0 °F 64% 29.82 in 10.0 mi SSE 15.0 mph 20.7 mph N/A   Clear
7:53 AM 75.0 °F - 63.0 °F 66% 29.82 in 10.0 mi SSE 16.1 mph - N/A   Clear
8:53 AM 79.0 °F - 64.0 °F 60% 29.82 in 10.0 mi SSE 17.3 mph - N/A   Clear
9:53 AM 84.9 °F 85.9 °F 63.0 °F 48% 29.83 in 10.0 mi SSE 12.7 mph - N/A   Clear
10:53 AM 91.0 °F 90.5 °F 60.1 °F 35% 29.81 in 10.0 mi WSW 8.1 mph - N/A   Clear
11:53 AM 96.1 °F 94.8 °F 57.0 °F 27% 29.80 in 10.0 mi West 8.1 mph - N/A   Clear
12:53 PM 99.0 °F 96.5 °F 53.1 °F 21% 29.78 in 10.0 mi Variable 4.6 mph - N/A   Clear
1:53 PM 99.0 °F - 52.0 °F 21% 29.77 in 10.0 mi NW 4.6 mph - N/A   Clear
2:53 PM 100.9 °F - 48.0 °F 17% 29.75 in 10.0 mi NW 5.8 mph - N/A   Clear
3:53 PM 102.9 °F - 46.0 °F 15% 29.72 in 10.0 mi Calm Calm - N/A   Scattered Clouds
4:53 PM 102.9 °F - 48.0 °F 16% 29.71 in 10.0 mi SE 6.9 mph - N/A   Partly Cloudy
5:41 PM 95.0 °F 95.2 °F 60.8 °F 32% 29.90 in 5.0 mi ENE 24.2 mph 31.1 mph 0.00 in Rain Light Rain
5:53 PM 93.9 °F 94.8 °F 62.1 °F 35% 29.74 in 10.0 mi East 17.3 mph 26.5 mph 0.00 in   Mostly Cloudy
6:53 PM 97.0 °F 96.9 °F 60.1 °F 29% 29.71 in 10.0 mi South 19.6 mph 26.5 mph N/A   Clear
7:53 PM 91.9 °F 92.9 °F 63.0 °F 38% 29.73 in 10.0 mi SSE 18.4 mph 27.6 mph N/A   Clear
8:53 PM 89.1 °F 90.0 °F 63.0 °F 42% 29.73 in 10.0 mi SSE 19.6 mph 27.6 mph N/A   Clear
9:53 PM 86.0 °F 86.8 °F 63.0 °F 46% 29.74 in 10.0 mi SSE 19.6 mph 27.6 mph N/A   Clear
10:53 PM 84.0 °F 84.9 °F 63.0 °F 49% 29.78 in 10.0 mi SSE 18.4 mph 27.6 mph N/A   Clear
11:53 PM 82.0 °F 83.4 °F 64.0 °F 54% 29.77 in 10.0 mi SSE 18.4 mph 27.6 mph N/A   Clear